Weather History for Cotulla, TX

Change the Weather History Date:

Wednesday, November 14, 2012

  Actual Average Record
Temperature  
Mean Temperature 56 °F -  
Max Temperature 61 °F 72 °F 89 °F (2007)
Min Temperature 52 °F 53 °F 37 °F (2013)
Degree Days  
Heating Degree Days 8    
Growing Degree Days 6 (Base 50)    
Moisture  
Dew Point 37 °F    
Average Humidity 49    
Maximum Humidity 60    
Minimum Humidity 36    
Precipitation  
Precipitation 0.00 in - - ()
Sea Level Pressure  
Sea Level Pressure 30.34 in    
Wind  
Wind Speed 2 mph (NE)    
Max Wind Speed 6 mph    
Max Gust Speed -    
Visibility 10 miles    
Events      
Averages and records for this station are not official NWS values.
T = Trace of Precipitation, MM = Missing Value Source: NWS Daily Summary

Daily Weather History Graph

Daily Weather History Graph

Search for Another Location

Airport:

Trip Planner

Search our weather history database for the weather conditions in past years. The results will help you decide how hot, cold, wet, or windy it might be!

Date:

Astronomy

Nov. 14, 2012 Rise Set
Actual Time 6:58 AM CST 5:43 PM CST
Civil Twilight 6:33 AM CST 6:08 PM CST
Nautical Twilight 6:05 AM CST 6:36 PM CST
Astronomical Twilight 5:37 AM CST 7:05 PM CST
Moon 7:45 AM CST (11/14) 6:38 PM CST (11/14)
Length of Visible Light 11h 34m
Length of Day
10h 44m
New Moon, 1% of the Moon is Illuminated
Nov 14
New Moon
Nov 20
First Quarter
Nov 28
Full
Dec 6
Last Quarter
Dec 13
New

Hourly Weather History & Observations

Time (CST) Temp. Dew Point Humidity Pressure Visibility Wind Dir Wind Speed Gust Speed Precip Events Conditions
12:53 AM 52.0 °F 36.0 °F 54% 30.35 in 10.0 mi Calm Calm - N/A   Overcast
1:53 AM 52.0 °F 36.0 °F 54% 30.36 in 10.0 mi NE 5.8 mph - N/A   Overcast
2:53 AM 52.0 °F 36.0 °F 54% 30.35 in 10.0 mi Calm Calm - N/A   Overcast
3:53 AM 52.0 °F 37.0 °F 57% 30.35 in 10.0 mi NNE 3.5 mph - N/A   Overcast
4:53 AM 52.0 °F 37.0 °F 57% 30.34 in 10.0 mi NE 3.5 mph - N/A   Overcast
5:53 AM 52.0 °F 36.0 °F 54% 30.33 in 10.0 mi Calm Calm - N/A   Overcast
6:53 AM 53.1 °F 37.0 °F 55% 30.37 in 10.0 mi Calm Calm - N/A   Overcast
7:53 AM 53.1 °F 37.0 °F 55% 30.38 in 10.0 mi NNE 3.5 mph - N/A   Overcast
8:53 AM 55.0 °F 35.1 °F 47% 30.40 in 10.0 mi NNE 3.5 mph - N/A   Overcast
9:53 AM 55.9 °F 35.1 °F 45% 30.41 in 10.0 mi ENE 4.6 mph - N/A   Overcast
10:53 AM 57.0 °F 35.1 °F 44% 30.41 in 10.0 mi ENE 3.5 mph - N/A   Overcast
11:53 AM 59.0 °F 34.0 °F 39% 30.39 in 10.0 mi Calm Calm - N/A   Overcast
12:53 PM 60.1 °F 33.1 °F 36% 30.36 in 10.0 mi Calm Calm - N/A   Overcast
1:53 PM 60.1 °F 34.0 °F 38% 30.33 in 10.0 mi Calm Calm - N/A   Overcast
2:53 PM 61.0 °F 34.0 °F 36% 30.30 in 10.0 mi Calm Calm - N/A   Overcast
3:53 PM 61.0 °F 35.1 °F 38% 30.29 in 10.0 mi Calm Calm - N/A   Overcast
4:53 PM 61.0 °F 35.1 °F 38% 30.29 in 10.0 mi East 3.5 mph - N/A   Overcast
5:53 PM 60.1 °F 36.0 °F 41% 30.30 in 10.0 mi Calm Calm - N/A   Overcast
6:53 PM 59.0 °F 37.9 °F 46% 30.30 in 10.0 mi Calm Calm - N/A   Overcast
7:53 PM 59.0 °F 39.0 °F 48% 30.30 in 10.0 mi Calm Calm - N/A   Overcast
8:53 PM 57.9 °F 43.0 °F 58% 30.31 in 10.0 mi Calm Calm - N/A   Overcast
9:53 PM 57.9 °F 42.1 °F 56% 30.30 in 10.0 mi Calm Calm - N/A   Overcast
10:53 PM 57.9 °F 44.1 °F 60% 30.30 in 10.0 mi Calm Calm - N/A   Overcast
11:53 PM 57.9 °F 44.1 °F 60% 30.28 in 10.0 mi Calm Calm - N/A   Overcast